date,time,DOY,Ta_1_1_1,RH_1_1_1,LWin_1_1_1,LWout_1_1_1,SWin_1_1_1,SWout_1_1_1,PPFD_1_1_1,SWC_1_1_1,Ts_1_1_1
[yyyy-mm-dd],[HH:MM],[ddd.ddd],[K],[%],[W+1m-2],[W+1m-2],[W+1m-2],[W+1m-2],[µmol+1m-2s-1],[m+3m-3],[K]
2013-01-23,00:30,23.020,249.68133333333336,66.165666666666667,-5.1896666666666667,-9999.0,0.16200000000000003,-2.0919999999999996,8.00000000000000017E-003,-9999.0,279.90999999999991
2013-01-23,01:00,23.041,249.44700000000003,66.953000000000003,-5.7626666666666662,-9999.0,0.23566666666666672,-2.5006666666666657,-2.66666666666666701E-003,-9999.0,279.90999999999991
2013-01-23,01:30,23.062,249.10733333333337,68.075333333333347,-6.6146666666666674,-9999.0,0.34033333333333332,-2.8443333333333332,8.66666666666666627E-003,-9999.0,279.90999999999991
2013-01-23,02:00,23.083,248.73400000000004,69.173999999999992,-6.8856666666666673,-9999.0,0.27799999999999997,-2.7816666666666663,7.33333333333333320E-003,-9999.0,279.90999999999991
2013-01-23,02:30,23.104,248.22066666666663,70.263666666666680,-7.1216666666666661,-9999.0,0.22500000000000001,-2.8660000000000001,2.00000000000000048E-003,-9999.0,279.90999999999991
2013-01-23,03:00,23.124,248.02700000000007,70.646666666666661,-7.3270000000000000,-9999.0,0.34266666666666656,-2.8260000000000001,4.33333333333333227E-003,-9999.0,279.90999999999991
2013-01-23,03:30,23.145,247.74833333333339,70.780999999999992,-6.7126666666666663,-9999.0,0.29133333333333339,-2.7449999999999997,1.10000000000000028E-002,-9999.0,279.90999999999991
2013-01-23,04:00,23.166,247.65366666666668,70.816333333333333,-7.0510000000000002,-9999.0,0.40566666666666673,-2.7056666666666667,6.33333333333333404E-003,-9999.0,279.90999999999991
2013-01-23,04:30,23.187,247.86666666666667,71.002666666666656,-4.9433333333333342,-9999.0,0.18566666666666667,-1.4209999999999998,-3.00000000000000006E-003,-9999.0,279.90999999999991
2013-01-23,05:00,23.208,248.14366666666663,71.211666666666659,-4.6796666666666660,-9999.0,0.20266666666666666,-1.7760000000000005,3.66666666666666660E-003,-9999.0,279.90999999999991
2013-01-23,05:30,23.229,248.38100000000003,71.469333333333324,-3.3286666666666673,-9999.0,5.00000000000000271E-003,-0.78466666666666673,4.66666666666666792E-003,-9999.0,279.90999999999991
2013-01-23,06:00,23.249,248.58766666666671,71.657666666666685,-3.2663333333333342,-9999.0,-7.06666666666666693E-002,-0.97533333333333327,8.33333333333333495E-003,-9999.0,279.90999999999991
2013-01-23,06:30,23.270,248.70666666666665,71.746666666666670,-3.6890000000000001,-9999.0,1.76666666666666639E-002,-1.2773333333333334,1.66666666666666699E-003,-9999.0,279.90999999999991
2013-01-23,07:00,23.291,248.82700000000003,71.839666666666645,-2.9720000000000004,-9999.0,-7.53333333333333494E-002,-0.79133333333333333,1.50000000000000029E-002,-9999.0,279.90999999999991
2013-01-23,07:30,23.312,249.12500000000000,72.284333333333336,-2.8776666666666673,-9999.0,0.14666666666666664,0.14566666666666669,1.6973333333333336,-9999.0,279.90999999999991
2013-01-23,08:00,23.333,249.71966666666668,73.004666666666665,-2.7280000000000002,-8.8270000000000000,1.6793333333333333,7.6740000000000022,19.103999999999999,-9999.0,279.90999999999991
2013-01-23,08:30,23.354,250.33533333333338,73.304333333333318,-2.5233333333333334,-9.2679999999999989,8.7006666666666685,38.750333333333330,72.798999999999992,-9999.0,279.90999999999991
2013-01-23,09:00,23.374,250.77933333333340,73.540333333333351,-2.5080000000000005,-9999.0,16.374999999999996,73.995666666666665,142.16933333333333,-9999.0,279.90999999999991
2013-01-23,09:30,23.395,251.29866666666666,73.733666666666679,-2.7563333333333326,-9999.0,27.162999999999993,132.26066666666668,247.10766666666666,-9999.0,279.90999999999991
2013-01-23,10:00,23.416,252.49700000000013,73.796999999999997,-4.1976666666666675,-9999.0,49.808333333333330,286.65366666666671,478.27800000000002,-9999.0,279.90999999999991
2013-01-23,10:30,23.437,253.79400000000001,72.575666666666663,-3.6589999999999998,-9999.0,48.530999999999992,255.93100000000001,465.86633333333339,-9999.0,279.90999999999991
2013-01-23,11:00,23.458,254.99200000000005,69.869333333333344,-3.7573333333333334,-9999.0,54.773333333333333,288.04433333333333,527.26199999999994,-9999.0,279.90999999999991
2013-01-23,11:30,23.479,256.03899999999999,68.409000000000006,-4.0146666666666677,-9999.0,71.104333333333315,387.47033333333331,701.01400000000001,-9999.0,279.90999999999991
2013-01-23,12:00,23.499,256.71933333333334,67.535666666666657,-3.6459999999999999,-9999.0,68.980333333333348,361.28466666666662,670.84033333333343,-9999.0,279.90999999999991
2013-01-23,12:30,23.520,257.23166666666668,67.115000000000009,-3.1486666666666658,-9999.0,62.776333333333326,312.62033333333335,588.65366666666682,-9999.0,279.90999999999991
2013-01-23,13:00,23.541,257.43400000000008,65.688333333333333,-2.5606666666666666,-9999.0,51.790333333333336,244.19133333333335,470.07966666666658,-9999.0,279.90999999999991
2013-01-23,13:30,23.562,257.53100000000006,68.320666666666668,-2.7456666666666667,-9999.0,42.546666666666667,195.78399999999996,381.75766666666669,-9999.0,279.90999999999991
2013-01-23,14:00,23.583,257.65466666666674,67.415666666666667,-2.8970000000000002,-9999.0,38.592000000000006,176.46000000000004,342.67499999999990,-9999.0,279.90999999999991
2013-01-23,14:30,23.604,257.72833333333330,67.984333333333325,-2.7523333333333331,-9999.0,28.855666666666661,128.97633333333334,251.57200000000000,-9999.0,279.90999999999991
2013-01-23,15:00,23.624,257.67966666666666,68.633666666666670,-3.0550000000000002,-9.6849999999999987,20.495333333333331,91.369000000000014,178.98366666666672,-9999.0,279.90999999999991
2013-01-23,15:30,23.645,257.26966666666669,75.882666666666665,-2.7443333333333331,-9.5185714285714305,17.691333333333329,76.551666666666662,146.65733333333330,-9999.0,279.90999999999991
2013-01-23,16:00,23.666,257.19233333333329,74.798333333333332,-2.9946666666666668,-8.7288888888888891,10.506333333333336,46.361000000000004,88.425333333333342,-9999.0,279.90999999999991
2013-01-23,16:30,23.687,257.10266666666666,78.404999999999987,-3.1896666666666675,-7.0581818181818168,3.2730000000000006,13.861000000000001,28.939999999999998,-9999.0,279.90999999999991
2013-01-23,17:00,23.708,256.90333333333336,75.335999999999999,-3.4673333333333338,-9999.0,0.92366666666666675,4.0966666666666676,10.049000000000003,-9999.0,279.90999999999991
2013-01-23,17:30,23.729,256.64499999999998,75.989666666666650,-3.4549999999999992,-9.5199999999999996,-0.11833333333333333,-0.58733333333333326,0.38699999999999990,-9999.0,279.90999999999991
2013-01-23,18:00,23.749,256.43700000000007,75.965666666666664,-3.2849999999999997,-9999.0,-0.14300000000000004,-0.68866666666666665,1.43333333333333351E-002,-9999.0,279.90999999999991
2013-01-23,18:30,23.770,256.13799999999998,74.355666666666664,-4.0303333333333340,-9999.0,-6.16666666666666752E-002,-1.3703333333333332,1.10000000000000028E-002,-9999.0,279.90999999999991
2013-01-23,19:00,23.791,255.89499999999995,76.326999999999984,-4.1483333333333334,-9999.0,-3.83333333333333443E-002,-1.2843333333333331,4.33333333333333313E-003,-9999.0,279.90999999999991
2013-01-23,19:30,23.812,255.72999999999999,76.026333333333341,-4.1630000000000003,-9999.0,-3.43333333333333338E-002,-1.3783333333333336,8.33333333333333322E-003,-9999.0,279.90999999999991
2013-01-23,20:00,23.833,255.68333333333331,76.181333333333313,-3.3876666666666657,-9.7800000000000011,-0.12900000000000000,-0.64466666666666683,1.33333333333333325E-002,-9999.0,279.90999999999991
2013-01-23,20:30,23.854,255.47400000000007,75.876000000000005,-4.8013333333333330,-8.4275000000000002,-3.39999999999999955E-002,-1.8756666666666666,1.46666666666666681E-002,-9999.0,279.90999999999991
2013-01-23,21:00,23.874,255.11200000000005,74.261333333333340,-5.7306666666666661,-9999.0,0.20566666666666666,-2.5720000000000001,1.00000000000000019E-002,-9999.0,279.90999999999991
2013-01-23,21:30,23.895,254.89133333333334,76.144000000000005,-5.7596666666666660,-9999.0,0.19433333333333333,-2.2466666666666666,1.23333333333333368E-002,-9999.0,279.90999999999991
2013-01-23,22:00,23.916,254.89533333333333,74.643000000000015,-4.2033333333333331,-9999.0,-7.36666666666666858E-002,-1.2140000000000000,7.66666666666666798E-003,-9999.0,279.90999999999991
2013-01-23,22:30,23.937,254.63866666666667,74.451000000000008,-5.0336666666666670,-9999.0,6.66666666666667230E-003,-1.8956666666666666,5.33333333333333402E-003,-9999.0,279.90999999999991
2013-01-23,23:00,23.958,254.52033333333341,75.732666666666688,-4.8006666666666664,-9999.0,-5.46666666666666828E-002,-1.4656666666666665,7.66666666666666798E-003,-9999.0,279.90999999999991
2013-01-23,23:30,23.979,254.36499999999992,76.559666666666672,-6.4743333333333339,-9999.0,0.10333333333333335,-2.7239999999999998,1.60000000000000003E-002,-9999.0,279.90999999999991
2013-01-24,00:00,24.000,254.02166666666668,77.959333333333333,-7.2813333333333343,-9999.0,0.11666666666666663,-2.8086666666666664,3.66666666666666660E-003,-9999.0,279.90999999999991
